[[{"header":{"parameterUnit":"m.s-1","parameterCategory":1,"la1":30.2991,"la2":30.254,"lo1":-89.0895,"lo2":-89.0444,"dy":0.0017,"dx":0.0017,"nx":28,"ny":28,"refTime":"2025-04-24T03:00:00:Z","depth":0,"parameterNumber":2,"parameterNumberName":"U-component_of_WINDS"},"data":[0,0,0,0,0,0,0,0,0,0,0,0,0,0,0,0,0,0,0,0,0,0,0,0,0,0,0,0,0,0,0,0,0,0,0,0,0,0,0,0,0,0,0,0,0,0,0,0,0,0,0,0,0,0,0,0,0,0,-3.1048,-3.1049,0,-3.1118,-3.1119,-3.112,-3.1078,-3.1076,-3.1074,-3.1072,-3.1144,-3.1147,-3.1151,0,0,0,0,0,0,0,0,0,0,0,0,0,-3.0877,-3.0881,-3.1048,-3.1049,-3.105,-3.1118,-3.1119,-3.112,-3.1078,-3.1076,-3.1073,-3.1071,-3.1143,-3.1147,-3.1152,0,0,0,0,0,0,0,0,0,0,0,0,0,-3.095,-3.0882,-3.1048,-3.1037,-3.1037,-3.1118,-3.1119,-3.112,-3.1079,-3.1076,-3.1073,-3.107,-3.1141,-3.1147,-3.1152,-3.1247,0,0,-3.1169,-3.1172,0,0,0,0,0,0,0,0,-3.0946,-3.0956,-3.1038,-3.1038,-3.1038,-3.1086,-3.1085,-3.1163,-3.108,-3.1063,-3.1072,-3.1069,-3.1127,-3.1134,-3.1153,-3.1251,-3.1254,-3.117,-3.1173,-3.1176,-3.1177,0,0,0,0,0,0,0,-3.0941,-3.0953,-3.1076,-3.1039,-3.1039,-3.1029,-3.1036,-3.11,-3.1111,-3.1064,-3.1061,-3.107,-3.1126,-3.1148,-3.1155,-3.1255,-3.117,-3.1175,-3.1178,-3.1181,-3.1432,-3.1435,0,0,0,0,0,0,-3.0937,-3.0949,-3.1073,-3.1078,-3.0983,-3.1034,-3.1042,-3.1074,-3.111,-3.1113,-3.1073,-3.1068,-3.114,-3.1148,-3.1157,-3.1269,-3.1176,-3.1181,-3.1184,-3.1429,-3.1433,-3.1436,0,0,0,0,0,0,-3.0933,-3.0948,-3.107,-3.1013,-3.1027,-3.104,-3.1076,-3.1077,-3.1098,-3.1117,-3.1118,-3.1093,-3.1138,-3.1149,-3.1225,-3.1271,-3.1184,-3.1189,-3.1425,-3.143,-3.1435,-3.1496,0,0,0,0,0,0,-3.0928,-3.0947,-3.0983,-3.1014,-3.1031,-3.1137,-3.1079,-3.108,-3.1108,-3.1103,-3.1136,-3.1138,-3.1136,-3.1217,-3.1231,-3.1278,-3.1193,-3.1421,-3.1427,-3.1433,-3.1489,-3.1502,-3.1513,0,0,0,0,0,-3.0922,-3.0998,-3.0985,-3.1001,-3.1076,-3.114,-3.115,-3.1146,-3.1112,-3.1148,-3.116,-3.1137,-3.1265,-3.1225,-3.124,-3.1289,-3.1418,-3.1426,-3.1433,-3.1484,-3.1499,-3.1512,0,0,0,0,0,0,-3.0973,-3.1002,-3.0988,-3.1076,-3.1106,-3.1133,-3.1178,-3.1162,-3.1202,-3.1196,-3.1189,-3.1197,-3.1276,-3.129,-3.1246,-3.1383,-3.1336,-3.1347,-3.137,-3.1385,-3.1396,-3.139,-3.1198,0,0,0,0,0,-3.0994,-3.1044,-3.1066,-3.1142,-3.1157,-3.1166,-3.1193,-3.1188,-3.1218,-3.1231,-3.1248,-3.1279,-3.1325,-3.1356,-3.14,-3.1492,-3.1498,-3.1534,-3.1545,-3.1555,-3.1564,-3.1612,-3.1627,-3.1461,-3.1461,-3.1461,0,0,-3.1039,-3.1061,-3.1092,-3.1152,-3.1175,-3.1225,-3.1176,-3.1233,-3.127,-3.1239,-3.1311,-3.1325,-3.1359,-3.1443,-3.1481,-3.1457,-3.1611,-3.1564,-3.1572,-3.1575,-3.1621,-3.1637,-3.1651,-3.1466,-3.1465,-3.1464,0,0,-3.1145,-3.1168,-3.1232,-3.1255,-3.129,-3.1295,-3.1311,-3.134,-3.1348,-3.1421,-3.1398,-3.1443,-3.1524,-3.1548,-3.1571,-3.1688,-3.1667,-3.1703,-3.1762,-3.1809,-3.1823,-3.1834,-3.1874,-3.1888,-3.1712,-3.1712,-3.1712,0,-3.1196,-3.1271,-3.1267,-3.1324,-3.1351,-3.1326,-3.139,-3.1414,-3.1461,-3.148,-3.1454,-3.1554,-3.1575,-3.1664,-3.1692,-3.1712,-3.1729,-3.1697,-3.1821,-3.1833,-3.1843,-3.1881,-3.1896,-3.1716,-3.1715,-3.1715,-3.1714,0,-3.1331,-3.1384,-3.1432,-3.1478,-3.151,-3.1571,-3.1575,-3.1608,-3.1601,-3.1608,-3.1682,-3.1706,-3.1754,-3.1776,-3.1769,-3.1863,-3.1847,-3.1822,-3.1774,-3.1863,-3.1898,-3.1913,-3.1721,-3.172,-3.1719,-3.1718,0,0,-3.147,-3.1512,-3.153,-3.155,-3.1587,-3.1627,-3.1687,-3.1734,-3.1762,-3.1796,-3.1845,-3.1914,-3.189,-3.1916,-3.1912,-3.1954,-3.2042,-3.1923,-3.1923,-3.1942,-3.2146,-3.2163,-3.218,-3.203,-3.2033,-3.2035,-3.2142,0,-3.1577,-3.168,-3.1678,-3.1774,-3.1822,-3.18,-3.1851,-3.1879,-3.1889,-3.1931,-3.1941,-3.1989,-3.1955,-3.197,-3.2011,-3.2023,-3.2083,-3.2015,-3.2074,-3.2077,-3.2064,-3.2199,-3.2218,-3.2318,-3.2156,-3.2159,-3.216,0,-3.1715,-3.1753,-3.1854,-3.1882,-3.1902,-3.1949,-3.1991,-3.2032,-3.2064,-3.2067,-3.2097,-3.2086,-3.2146,-3.2098,-3.2181,-3.2135,-3.2159,-3.2169,-3.2173,-3.2176,-3.2122,-3.2204,-3.235,-3.2364,-3.2182,-3.2181,-3.2179,0,-3.1803,-3.188,-3.195,-3.1968,-3.2004,-3.2037,-3.2053,-3.2082,-3.211,-3.2147,-3.2165,-3.2209,-3.2233,-3.2267,-3.2269,-3.2234,-3.2351,-3.2304,-3.2355,-3.2355,-3.2379,-3.2377,-3.2528,-3.2398,-3.2398,-3.2398,-3.2397,0,-3.1922,-3.1984,-3.199,-3.2032,-3.2101,-3.2098,-3.2166,-3.218,-3.2205,-3.225,-3.2234,-3.2276,-3.2276,-3.2319,-3.2321,-3.2388,-3.2399,-3.2403,-3.2402,-3.2403,-3.2403,-3.2417,-3.241,-3.2402,-3.2401,-3.24,-3.2399,0,-3.2031,-3.2038,-3.2112,-3.214,-3.2148,-3.2198,-3.2221,-3.2262,-3.227,-3.2326,-3.234,-3.2352,-3.2402,-3.2407,-3.2466,-3.2466,-3.2547,-3.254,-3.2536,-3.2534,-3.2583,-3.2578,-3.2748,-3.2769,-3.2628,-3.2629,-3.263,0,-3.2105,-3.2152,-3.2185,-3.2213,-3.2232,-3.2278,-3.2307,-3.2306,-3.2336,-3.2375,-3.2411,-3.2459,-3.2497,-3.2578,-3.2592,-3.2637,-3.2629,-3.2686,-3.2636,-3.2635,-3.2628,-3.2624,-3.2628,-3.2695,-3.2696,-3.2698,-3.2699,0,-3.2235,-3.2236,-3.2277,-3.232,-3.2354,-3.2388,-3.242,-3.2444,-3.2448,-3.2482,-3.2533,-3.2563,-3.2622,-3.267,-3.2713,-3.273,-3.2715,-3.2715,-3.2728,-3.2729,-3.2724,-3.2725,-3.256,-3.271,-3.2709,-3.2708,-3.2708,-3.2707,-3.2327,-3.2368,-3.2397,-3.2443,-3.2467,-3.2497,-3.2536,-3.2549,-3.2591,-3.2638,-3.2636,-3.2691,-3.2721,-3.2778,-3.2798,-3.2841,-3.2822,-3.2843,-3.2848,-3.2852,-3.2856,-3.2719,-3.285,-3.2849,-3.2849,-3.2849,-3.2849,0,-3.2455,-3.2472,-3.2515,-3.256,-3.2596,-3.2579,-3.2613,-3.2645,-3.2694,-3.2723,-3.2761,-3.2819,-3.2865,-3.2883,-3.2928,-3.2959,-3.2953,-3.2971,-3.2967,-3.2971,-3.2871,-3.2854,-3.2975,-3.2975,-3.2975,-3.2975,-3.2975,-3.2975,-3.2525,-3.2592,-3.2596,-3.2674,-3.2691,-3.2745,-3.2766,-3.2793,-3.2816,-3.2881,-3.2919,-3.2931,-3.2955,-3.3002,-3.3044,-3.3048,-3.3064,-3.3085,-3.3086,-3.2991,-3.2979,-3.2966,-3.295,-3.3089,-3.3089,-3.3181,-3.3182,-3.3183]},{"header":{"parameterUnit":"m.s-1","parameterCategory":1,"la1":30.2991,"la2":30.254,"lo1":-89.0895,"lo2":-89.0444,"dy":0.0017,"dx":0.0017,"nx":28,"ny":28,"refTime":"2025-04-24T03:00:00:Z","depth":0,"parameterNumber":3,"parameterNumberName":"V-component_of_WINDS"},"data":[0,0,0,0,0,0,0,0,0,0,0,0,0,0,0,0,0,0,0,0,0,0,0,0,0,0,0,0,0,0,0,0,0,0,0,0,0,0,0,0,0,0,0,0,0,0,0,0,0,0,0,0,0,0,0,0,0,0,2.7117,2.7117,0,2.7135,2.7135,2.7135,2.7071,2.7069,2.7067,2.7065,2.7081,2.7083,2.7085,0,0,0,0,0,0,0,0,0,0,0,0,0,2.7024,2.7026,2.7117,2.7117,2.7117,2.7135,2.7135,2.7135,2.7071,2.7069,2.7067,2.7064,2.708,2.7082,2.7085,0,0,0,0,0,0,0,0,0,0,0,0,0,2.7055,2.7027,2.7117,2.7087,2.7085,2.7134,2.7135,2.7135,2.7072,2.7069,2.7066,2.7063,2.7079,2.7082,2.7085,2.7163,0,0,2.7096,2.7097,0,0,0,0,0,0,0,0,2.7054,2.7059,2.7091,2.709,2.7087,2.7098,2.7108,2.7144,2.7072,2.7077,2.7065,2.7062,2.7088,2.7091,2.71,2.7164,2.7164,2.7096,2.7098,2.7099,2.71,0,0,0,0,0,0,0,2.7052,2.7058,2.7124,2.7092,2.7089,2.7072,2.7074,2.7114,2.7098,2.7076,2.7071,2.7075,2.7087,2.7097,2.71,2.7165,2.7096,2.7099,2.7101,2.7102,2.7292,2.7295,0,0,0,0,0,0,2.7054,2.7056,2.7123,2.7124,2.7063,2.7076,2.7078,2.7097,2.7098,2.7095,2.7077,2.7072,2.7093,2.7096,2.71,2.719,2.7099,2.7102,2.7104,2.7289,2.7292,2.7296,0,0,0,0,0,0,2.7052,2.706,2.7122,2.7089,2.7096,2.7081,2.7103,2.7099,2.7109,2.7098,2.7095,2.7091,2.7091,2.7096,2.7148,2.719,2.7104,2.7107,2.7285,2.729,2.7294,2.7371,0,0,0,0,0,0,2.705,2.706,2.709,2.709,2.7098,2.717,2.7106,2.7101,2.7116,2.7109,2.7111,2.7108,2.7089,2.7143,2.7151,2.7193,2.7109,2.7281,2.7287,2.7293,2.7365,2.7378,2.7389,0,0,0,0,0,2.7047,2.711,2.7092,2.71,2.7135,2.7173,2.7177,2.7155,2.7119,2.7149,2.7142,2.7108,2.7185,2.7149,2.7158,2.7201,2.7278,2.7285,2.7292,2.7359,2.7375,2.7389,0,0,0,0,0,0,2.7114,2.711,2.7089,2.7155,2.7165,2.7162,2.7198,2.7172,2.7191,2.7184,2.7154,2.7155,2.7213,2.7212,2.7173,2.7276,2.7225,2.7234,2.7273,2.7289,2.73,2.7298,2.7112,0,0,0,0,0,2.7137,2.7169,2.7164,2.7222,2.7229,2.7213,2.7229,2.7211,2.7219,2.7223,2.7219,2.7228,2.7254,2.7271,2.7295,2.7365,2.7364,2.7399,2.7411,2.7421,2.7429,2.7465,2.748,2.7318,2.7318,2.7318,0,0,2.7184,2.7186,2.7208,2.7236,2.7241,2.7274,2.7217,2.7254,2.7278,2.7228,2.7277,2.7275,2.7283,2.7344,2.7371,2.7346,2.7473,2.743,2.7438,2.744,2.7473,2.7489,2.7502,2.7323,2.7322,2.7322,0,0,2.7286,2.7291,2.734,2.7348,2.7357,2.7346,2.7359,2.736,2.7357,2.7406,2.7369,2.7397,2.7442,2.7449,2.7459,2.7565,2.7534,2.7573,2.7636,2.7671,2.7684,2.7695,2.7731,2.7745,2.7581,2.7581,2.7581,0,2.7342,2.7392,2.7369,2.7409,2.7422,2.738,2.7429,2.7436,2.7453,2.7462,2.7434,2.749,2.7493,2.7554,2.7581,2.759,2.7602,2.7572,2.7684,2.7695,2.7705,2.7739,2.7753,2.7586,2.7585,2.7585,2.7584,0,2.746,2.7495,2.7533,2.7551,2.7569,2.7613,2.7596,2.7617,2.7598,2.759,2.764,2.7642,2.7664,2.7678,2.766,2.7738,2.7721,2.769,2.7638,2.7725,2.7757,2.777,2.7592,2.7591,2.7589,2.7588,0,0,2.7603,2.7609,2.7623,2.7631,2.7639,2.7665,2.7707,2.773,2.7748,2.7761,2.7795,2.7835,2.7805,2.7816,2.7798,2.783,2.7912,2.7794,2.7793,2.7814,2.7997,2.802,2.8035,2.7893,2.7896,2.7898,2.7996,0,2.7702,2.7775,2.7756,2.7829,2.786,2.7821,2.7858,2.7866,2.7861,2.7885,2.7879,2.7907,2.7867,2.7873,2.7903,2.7896,2.7948,2.7889,2.7923,2.7924,2.792,2.8052,2.8076,2.8169,2.8008,2.801,2.8012,0,2.7827,2.7846,2.7922,2.7925,2.7937,2.7971,2.799,2.8015,2.8024,2.8017,2.803,2.8006,2.8047,2.7997,2.8052,2.8012,2.8025,2.8024,2.8027,2.8028,2.7972,2.8055,2.8198,2.8211,2.8031,2.803,2.8028,0,2.7922,2.7967,2.8017,2.8025,2.8031,2.8055,2.8058,2.8064,2.8079,2.8096,2.8105,2.8127,2.8138,2.8155,2.8137,2.8103,2.8195,2.8144,2.8189,2.819,2.8208,2.8207,2.8354,2.822,2.822,2.822,2.822,0,2.8033,2.8081,2.806,2.8091,2.8143,2.8121,2.8173,2.8171,2.8177,2.8206,2.8175,2.8203,2.8178,2.8204,2.819,2.8237,2.8243,2.8238,2.8233,2.824,2.824,2.8246,2.8239,2.8223,2.8223,2.8222,2.8221,0,2.8147,2.8135,2.8188,2.8189,2.8191,2.8229,2.8229,2.8257,2.825,2.8288,2.8295,2.8283,2.8312,2.8296,2.8326,2.8316,2.8377,2.8365,2.8374,2.837,2.8416,2.8411,2.857,2.859,2.8445,2.8447,2.8448,0,2.8218,2.8254,2.8259,2.8277,2.8283,2.8312,2.8328,2.8307,2.8325,2.8338,2.8364,2.8391,2.841,2.8458,2.8451,2.8473,2.846,2.8514,2.8463,2.8468,2.8459,2.8456,2.8459,2.8524,2.8526,2.8527,2.8528,0,2.8344,2.8337,2.8361,2.8384,2.8404,2.8421,2.8434,2.8451,2.8431,2.8452,2.8481,2.8497,2.8527,2.8553,2.8573,2.8575,2.8548,2.8545,2.8556,2.8562,2.8566,2.8563,2.84,2.8541,2.8539,2.8539,2.8538,2.8537,2.8437,2.8467,2.8476,2.8504,2.8513,2.8526,2.8553,2.855,2.8574,2.8598,2.8585,2.8619,2.8627,2.865,2.8656,2.8682,2.866,2.8677,2.868,2.8685,2.869,2.8564,2.8685,2.8685,2.8684,2.8684,2.8684,0,2.8561,2.8565,2.8591,2.8612,2.8634,2.8609,2.8623,2.8643,2.8674,2.8684,2.8704,2.8738,2.8763,2.8759,2.8782,2.8804,2.8792,2.881,2.8807,2.8808,2.8709,2.8696,2.8819,2.8819,2.8819,2.8819,2.8819,2.8819,2.8628,2.8677,2.8671,2.8723,2.8726,2.8761,2.8771,2.8783,2.8791,2.883,2.8852,2.8849,2.8853,2.8876,2.8898,2.8896,2.8905,2.8928,2.8921,2.8829,2.8815,2.8802,2.879,2.8931,2.8931,2.9018,2.9019,2.9019]}]]